Regional Weather Roundup
Issued by NWS Jackson, KY

Home | Current Version | Previous Version | Graphics & Text | Print | Product List | Glossary On
Versions: 1 2 3 4 5 6 7 8 9 10 11 12 13 14 15 16 17 18 19 20 21 22 23 24 25 26 27 28 29 30 31 32 33 34 35 36 37 38 39 40 41 42 43 44 45 46 47 48 49 50
217
ASUS43 KJKL 041210
RWRJKL

EAST KENTUCKY HOURLY WEATHER ROUNDUP
NATIONAL WEATHER SERVICE JACKSON KY
800 AM EDT WED MAY 04 2016

NOTE: "FAIR" INDICATES FEW OR NO CLOUDS BELOW 12,000 FEET WITH
NO SIGNIFICANT WEATHER AND/OR OBSTRUCTIONS TO VISIBILITY.

* THESE REPORTS ARE NOT UNDER NWS QUALITY CONTROL AND MAY NOT
  REPORT WEATHER SUCH AS PRECIPITATION AND FOG.

KYZ079-080-083-085-087-088-110-112-115-119-120-041300
...EASTERN KENTUCKY...

CITY           SKY/WX    TMP DP  RH WIND       PRES   REMARKS
JACKSON        CLOUDY    51  47  86 CALM      29.79R
6HR MIN TEMP:  50; 6HR MAX TEMP:  52; 6HR PCP: TRACE;

LONDON         SUNNY     50  45  83 SW6       29.81S
6HR MIN TEMP:  50; 6HR MAX TEMP:  54; 6HR PCP: TRACE;

SOMERSET*      CLOUDY    50  46  87 CALM      29.83S
MONTICELLO*    SUNNY     50  47  89 VRB7      29.84S
6HR MIN TEMP:  45; 6HR MAX TEMP:  51;

WILLIAMSBURG*  SUNNY     50  48  93 SW3       29.83S
MIDDLESBORO*   CLOUDY    53  47  80 CALM      29.82S
6HR MIN TEMP:  51; 6HR MAX TEMP:  55;

HARLAN APT*    CLOUDY    50  46  87 CALM      29.82R
BLACK MTN*       N/A     39  39 100 SW2         N/A
PIKE CO APT*   CLOUDY    49  49 100 CALM      29.79R
BIG SANDY APT* CLOUDY    50  49  96 CALM      29.78S
6HR MIN TEMP:  50; 6HR MAX TEMP:  51;

MOREHEAD APT*  MOSUNNY   52  48  87 SW8       29.79S
$$

KYZ035-036-041-042-044-050-067-078-099-041300
...CENTRAL KENTUCKY...

CITY           SKY/WX    TMP DP  RH WIND       PRES   REMARKS
MT STERLING*   CLOUDY    50  46  87 SW6       29.79S
FLEMING/MASON* CLOUDY    49  47  93 SW5       29.77S
DANVILLE*      MOSUNNY   48  45  87 S3        29.80F
RICHMOND*      MOSUNNY   50  43  76 SW7       29.79S
LEXINGTON      CLOUDY    49  45  86 SW8       29.77F
6HR MIN TEMP:  46; 6HR MAX TEMP:  52;

FRANKFORT      CLOUDY    49  44  83 SW7       29.76S
6HR MIN TEMP:  46; 6HR MAX TEMP:  51;

LOUISVILLE     MOSUNNY   55  44  66 SW5       29.76S
6HR MIN TEMP:  52; 6HR MAX TEMP:  55;

LEBANON*         N/A     50  45  81 S7        29.79S
BOWLING GREEN  SUNNY     50  46  86 SW7       29.82F
6HR MIN TEMP:  47; 6HR MAX TEMP:  53;

$$

KYZ091>093-OHZ055-061-077-WVZ005-015-034-035-042-041300
...SOUTHERN OHIO/WEST VIRGINIA...

CITY           SKY/WX    TMP DP  RH WIND       PRES   REMARKS
COVINGTON      PTSUNNY   49  46  90 S7        29.73S
COLUMBUS       MOSUNNY   47  46  97 SE3       29.71F FOG
DAYTON         CLOUDY    50  46  86 S12       29.69F
WILMINGTON     PTSUNNY   49  47  93 SW8       29.72S
HUNTINGTON     CLOUDY    52  49  89 W6        29.76S
CHARLESTON     CLOUDY    53  50  89 W6        29.75S FOG
PINEVILLE*     CLOUDY    51  48  90 MISG      29.82S
BECKLEY        CLOUDY    48  46  93 SW7       29.76S
$$

VAZ002-007-008-TNZ017-027-036-066-071-041300
...SOUTHWEST VIRGINIA/EAST TENNESSEE...

CITY           SKY/WX    TMP DP  RH WIND       PRES   REMARKS
WISE*          DRIZZLE   46  45  93 CALM      29.81S
BRISTOL        CLOUDY    54  46  74 SW7       29.80S
MORRISTOWN*    SUNNY     54  46  76 W8        29.82R
SEVIERVILLE*   SUNNY     52  46  82 SW6       29.83S
KNOXVILLE      MOSUNNY   52  47  83 SW7       29.84R
OAK RIDGE      SUNNY     53  46  77 CALM      29.85S
CROSSVILLE     SUNNY     46  44  93 W6        29.85S
NASHVILLE      SUNNY     49  46  90 CALM      29.85F
$$

...KEY TO REMARKS...
VSB - VISIBILITY IN MILES
WCI - WIND CHILL INDEX
HX  - HEAT INDEX

$$




USA.gov is the U.S. government's official web portal to all federal, state and local government web resources and services.